• In Netherlands
  • List of Countries
  • For 7 days
  • Water Temperature
  • Satellite Maps
  • Weather Map
  • Weather Widgets
  • user-avatar
    Login

    Hourly Weather Solden

    Today, 27 February, Monday

    Time Temperature Precipitation Wind Pressure Humidity
    00:00 -6°C° 0.1 mm 1 mps 578 mmHg 94%
    01:00 -3°C° 0 mm 1 mps 578 mmHg 93%
    02:00 -4°C° 0.1 mm 1 mps 578 mmHg 93%
    03:00 -4°C° 0.1 mm 1 mps 577 mmHg 94%
    04:00 -6°C° 0.1 mm 1 mps 577 mmHg 95%
    05:00 -6°C° 0 mm 1 mps 577 mmHg 95%
    06:00 -6°C° 0 mm 1 mps 577 mmHg 95%
    07:00 -6°C° 0 mm 1 mps 576 mmHg 95%
    08:00 -4°C° 0 mm 1 mps 577 mmHg 93%
    09:00 -2°C° 0 mm 1 mps 577 mmHg 91%
    10:00 -3°C° 0 mm 2 mps 578 mmHg 89%
    11:00 -2°C° 0 mm 2 mps 578 mmHg 88%
    12:00 -2°C° 0 mm 2 mps 578 mmHg 87%
    13:00 -1°C° 0 mm 2 mps 578 mmHg 85%
    14:00 -2°C° 0 mm 2 mps 577 mmHg 86%
    15:00 -2°C° 0 mm 2 mps 577 mmHg 86%
    16:00 -2°C° 0 mm 2 mps 576 mmHg 86%
    17:00 -4°C° 0 mm 2 mps 575 mmHg 89%
    18:00 -6°C° 0 mm 2 mps 575 mmHg 92%
    19:00 -7°C° 0 mm 2 mps 574 mmHg 95%
    20:00 -7°C° 0 mm 2 mps 574 mmHg 95%
    21:00 -7°C° 0 mm 2 mps 574 mmHg 95%
    22:00 -8°C° 0 mm 2 mps 574 mmHg 94%
    23:00 -7°C° 0.1 mm 2 mps 573 mmHg 94%

    Tomorrow, 28 February, Tuesday

    Time Temperature Precipitation Wind Pressure Humidity
    00:00 -7°C° 0.1 mm 2 mps 573 mmHg 94%
    01:00 -7°C° 0.1 mm 2 mps 573 mmHg 93%
    02:00 -7°C° 0.1 mm 2 mps 572 mmHg 94%
    03:00 -6°C° 0.1 mm 2 mps 572 mmHg 94%
    04:00 -6°C° 0.1 mm 2 mps 572 mmHg 94%
    05:00 -6°C° 0.4 mm 2 mps 571 mmHg 94%
    06:00 -6°C° 0.4 mm 2 mps 571 mmHg 95%
    07:00 -6°C° 0.4 mm 2 mps 571 mmHg 96%
    08:00 -5°C° 1 mm 2 mps 571 mmHg 95%
    09:00 -5°C° 1 mm 2 mps 571 mmHg 94%
    10:00 -4°C° 1 mm 2 mps 571 mmHg 93%
    11:00 -4°C° 1.6 mm 2 mps 571 mmHg 94%
    12:00 -5°C° 1.6 mm 3 mps 571 mmHg 94%
    13:00 -5°C° 1.6 mm 3 mps 570 mmHg 94%
    14:00 -5°C° 2 mm 3 mps 569 mmHg 95%
    15:00 -4°C° 2 mm 2 mps 568 mmHg 95%
    16:00 -4°C° 2 mm 2 mps 567 mmHg 96%
    17:00 -5°C° 1.5 mm 2 mps 567 mmHg 96%
    18:00 -5°C° 1.5 mm 2 mps 567 mmHg 97%
    19:00 -6°C° 1.5 mm 2 mps 567 mmHg 97%
    20:00 -6°C° 1.6 mm 2 mps 567 mmHg 98%
    21:00 -6°C° 1.6 mm 2 mps 568 mmHg 98%
    22:00 -6°C° 1.6 mm 2 mps 568 mmHg 98%
    23:00 -7°C° 1.2 mm 2 mps 568 mmHg 98%

    Day after tomorrow, 1 March, Wednesday

    Time Temperature Precipitation Wind Pressure Humidity
    00:00 -8°C° 1.2 mm 2 mps 568 mmHg 97%
    01:00 -9°C° 1.2 mm 2 mps 568 mmHg 97%
    02:00 -9°C° 0.5 mm 2 mps 568 mmHg 96%
    03:00 -10°C° 0.5 mm 2 mps 567 mmHg 95%
    04:00 -12°C° 0.5 mm 2 mps 567 mmHg 94%
    05:00 -13°C° 0 mm 2 mps 567 mmHg 93%
    06:00 -14°C° 0 mm 2 mps 567 mmHg 93%
    07:00 -14°C° 0 mm 2 mps 567 mmHg 93%
    08:00 -12°C° 0 mm 2 mps 569 mmHg 91%
    09:00 -10°C° 0 mm 2 mps 570 mmHg 89%
    10:00 -7°C° 0 mm 1 mps 572 mmHg 87%
    11:00 -7°C° 0.1 mm 2 mps 573 mmHg 86%
    12:00 -6°C° 0.1 mm 2 mps 573 mmHg 85%
    13:00 -6°C° 0.1 mm 2 mps 574 mmHg 84%
    14:00 -6°C° 0.1 mm 2 mps 574 mmHg 85%
    15:00 -4°C° 0.1 mm 1 mps 574 mmHg 87%
    16:00 -4°C° 0.1 mm 1 mps 575 mmHg 88%
    17:00 -8°C° 0 mm 1 mps 574 mmHg 88%
    18:00 -11°C° 0 mm 1 mps 572 mmHg 89%
    19:00 -14°C° 0 mm 1 mps 571 mmHg 90%
    20:00 -13°C° 0 mm 1 mps 572 mmHg 89%
    21:00 -12°C° 0 mm 1 mps 573 mmHg 88%
    22:00 -14°C° 0 mm 2 mps 574 mmHg 88%
    23:00 -13°C° 0 mm 2 mps 574 mmHg 87%

    2 March, Thursday

    Time Temperature Precipitation Wind Pressure Humidity
    00:00 -12°C° 0 mm 2 mps 574 mmHg 87%
    01:00 -12°C° 0 mm 2 mps 574 mmHg 86%
    02:00 -12°C° 0.1 mm 2 mps 574 mmHg 87%
    03:00 -12°C° 0.1 mm 2 mps 574 mmHg 87%
    04:00 -12°C° 0.1 mm 2 mps 574 mmHg 87%
    05:00 -10°C° 0.1 mm 2 mps 575 mmHg 87%
    06:00 -10°C° 0.1 mm 2 mps 575 mmHg 87%
    07:00 -9°C° 0.1 mm 1 mps 575 mmHg 87%
    08:00 -7°C° 0.1 mm 1 mps 577 mmHg 87%
    09:00 -4°C° 0.1 mm 1 mps 578 mmHg 87%
    10:00 -2°C° 0.1 mm 1 mps 579 mmHg 88%
    11:00 -1°C° 0.1 mm 1 mps 580 mmHg 89%
    12:00 0°C° 0.1 mm 1 mps 580 mmHg 89%
    13:00 0°C° 0.1 mm 1 mps 580 mmHg 90%
    14:00 0°C° 0.1 mm 1 mps 580 mmHg 91%
    15:00 0°C° 0.1 mm 1 mps 580 mmHg 92%
    16:00 0°C° 0.1 mm 1 mps 580 mmHg 93%
    17:00 -2°C° 0.1 mm 1 mps 579 mmHg 94%
    18:00 -4°C° 0.1 mm 1 mps 578 mmHg 96%
    19:00 -7°C° 0.1 mm 1 mps 578 mmHg 97%
    20:00 -7°C° 0 mm 1 mps 578 mmHg 97%
    21:00 -7°C° 0 mm 1 mps 578 mmHg 97%
    22:00 -8°C° 0 mm 1 mps 578 mmHg 97%
    23:00 -8°C° 0 mm 1 mps 578 mmHg 97%

    3 March, Friday

    Time Temperature Precipitation Wind Pressure Humidity
    00:00 -7°C° 0 mm 1 mps 578 mmHg 97%
    01:00 -7°C° 0 mm 1 mps 578 mmHg 97%
    02:00 -7°C° 0 mm 1 mps 577 mmHg 96%
    03:00 -7°C° 0 mm 1 mps 577 mmHg 96%
    04:00 -7°C° 0 mm 1 mps 577 mmHg 96%
    05:00 -7°C° 0 mm 1 mps 577 mmHg 96%
    06:00 -6°C° 0 mm 1 mps 577 mmHg 96%
    07:00 -6°C° 0 mm 1 mps 577 mmHg 96%
    08:00 -6°C° 0 mm 2 mps 577 mmHg 95%
    09:00 -5°C° 0 mm 2 mps 578 mmHg 94%
    10:00 -3°C° 0 mm 2 mps 578 mmHg 93%
    11:00 -3°C° 0.1 mm 2 mps 578 mmHg 93%
    12:00 -3°C° 0.1 mm 2 mps 578 mmHg 93%
    13:00 -2°C° 0.1 mm 2 mps 578 mmHg 93%
    14:00 -3°C° 0.2 mm 2 mps 577 mmHg 94%
    15:00 -4°C° 0.2 mm 3 mps 577 mmHg 94%
    16:00 -4°C° 0.2 mm 3 mps 576 mmHg 94%
    17:00 -4°C° 0.2 mm 3 mps 576 mmHg 95%
    18:00 -5°C° 0.2 mm 3 mps 575 mmHg 96%
    19:00 -6°C° 0.2 mm 3 mps 574 mmHg 97%
    20:00 -6°C° 0.3 mm 3 mps 574 mmHg 97%
    21:00 -6°C° 0.3 mm 3 mps 575 mmHg 97%
    22:00 -6°C° 0.3 mm 3 mps 575 mmHg 97%
    23:00 -5°C° 0.3 mm 2 mps 575 mmHg 97%

    4 March, Saturday

    Time Temperature Precipitation Wind Pressure Humidity
    00:00 -5°C° 0.3 mm 2 mps 575 mmHg 97%
    01:00 -5°C° 0.3 mm 2 mps 575 mmHg 97%
    02:00 -6°C° 0.1 mm 2 mps 575 mmHg 97%
    03:00 -6°C° 0.1 mm 2 mps 575 mmHg 97%
    04:00 -6°C° 0.1 mm 2 mps 574 mmHg 97%
    05:00 -6°C° 0.1 mm 2 mps 574 mmHg 97%
    06:00 -6°C° 0.1 mm 2 mps 574 mmHg 97%
    07:00 -6°C° 0.1 mm 2 mps 574 mmHg 96%
    08:00 -5°C° 0.3 mm 2 mps 575 mmHg 95%
    09:00 -4°C° 0.3 mm 2 mps 575 mmHg 94%
    10:00 -3°C° 0.3 mm 2 mps 576 mmHg 93%
    11:00 -3°C° 0.4 mm 2 mps 576 mmHg 93%
    12:00 -2°C° 0.4 mm 3 mps 576 mmHg 92%
    13:00 -2°C° 0.4 mm 3 mps 576 mmHg 91%
    14:00 -2°C° 0.4 mm 3 mps 575 mmHg 92%
    15:00 -2°C° 0.4 mm 3 mps 575 mmHg 93%
    16:00 -2°C° 0.4 mm 3 mps 575 mmHg 93%
    17:00 -4°C° 0.3 mm 3 mps 575 mmHg 95%
    18:00 -4°C° 0.3 mm 3 mps 575 mmHg 96%
    19:00 -5°C° 0.3 mm 3 mps 574 mmHg 97%
    20:00 -4°C° 0.1 mm 2 mps 574 mmHg 97%
    21:00 -5°C° 0.1 mm 2 mps 574 mmHg 97%
    22:00 -5°C° 0.1 mm 2 mps 574 mmHg 97%
    23:00 -5°C° 0.4 mm 2 mps 574 mmHg 97%
    Show more